Voltar ao catálogo

COSMOS 876

AtivoMilitarLEO
NORAD 9593·PAYLOAD·🇷🇺 Russia

Lançado Dec 7, 1976 de Plesetsk Cosmodrome

Loading…

Próximas Passagens (próximas 24 horas)

TLE

AtualizadoSource: Space-Track

Época: Sep 14, 2026, 09:43 UTC

1 09593U 76118F   26257.40532708 -.00000030  00000-0 -10475-3 0  9995
2 09593  74.0276 239.0004 0047025  25.6695  46.8670 12.41329023255272

Acompanhe COSMOS 876 em tempo real com AllMySat

Download on the App Store